Regional Weather Roundup
Issued by NWS Charleston, SC

Current Version | Previous Version | Text Only | Print | Product List | Glossary On
Versions: 1 2 3 4 5 6 7 8 9 10 11 12 13 14 15 16 17 18 19 20 21 22 23 24 25 26 27 28 29 30 31 32 33 34 35 36 37 38 39 40 41 42 43 44 45 46 47 48 49 50
000 ASUS42 KCHS 051911 RWRCHS REGIONAL WEATHER ROUNDUP NATIONAL WEATHER SERVICE CHARLESTON SC 200 PM EST THU MAR 05 2015 NOTE: "FAIR" INDICATES FEW OR NO CLOUDS BELOW 12,000 FEET WITH NO SIGNIFICANT WEATHER AND/OR OBSTRUCTIONS TO VISIBILITY. NOT ALL STATIONS ARE QUALITY CONTROLLED BY THE NATIONAL WEATHER SERVICE. USE DATA WITH CAUTION...ESPECIALLY DEWPOINT OBSERVATIONS. SCZ027-030-031-034>040-042>050-052000- ...SOUTHEAST SOUTH CAROLINA... CITY SKY/WX TMP DP RH WIND PRES REMARKS N CHARLESTON PTSUNNY 79 63 57 SW21G31 29.95F WATERFRONT PRK NOT AVBL MOUNT PLEASANT FAIR 73 64 73 S14G25 29.96F PINOPOLIS NOT AVBL MONCKS CORNER CLOUDY 82 63 51 SW14G21 29.92F SUMMERVILLE MOCLDY 82 63 51 SW13 29.93F BEAUFORT MCAS MOSUNNY 82 65 56 S16 29.95F BEAUFORT ARPT FAIR 73 64 73 S13G18 29.97F HILTON HEAD IS SUNNY 73 63 68 S9G18 29.99F WALTERBORO CLOUDY 82 63 51 SW22G30 29.93F ALLENDALE FAIR 82 63 51 SW13G22 29.93F ...SOUTHERN MIDLANDS AND PEE DEE... CITY SKY/WX TMP DP RH WIND PRES REMARKS GEORGETOWN NOT AVBL KINGSTREE NOT AVBL ORANGEBURG PTSUNNY 82 59 45 SW25G33 29.90F BARNWELL MOCLDY 81 63 54 SW17G30 29.93S AIKEN LGT RAIN 63 59 88 W21G51 30.00R MANNING NOT AVBL COLUMBIA PTSUNNY 79 60 52 SW29G44 29.87F SUMTER PTSUNNY 79 60 53 SW21G35 29.86F FLORENCE PTSUNNY 81 61 50 SW21G28 29.86F MYRTLE BEACH MOSUNNY 75 63 64 S25 29.91F N MYRTLE BEACH MOSUNNY 66 59 78 SW25G35 29.91F $$ GAZ063-065-086>088-099>101-113>116-118-119-134>141-150-052000- ...SOUTHEAST GEORGIA... CITY SKY/WX TMP DP RH WIND PRES REMARKS SAVANNAH ARPT PTSUNNY 80 61 52 SW18G28 29.98F HUNTER AAF MOSUNNY 82 65 56 SW13G22 29.96F FORT STEWART PTSUNNY 81 63 54 SW22 29.97F STATESBORO MOSUNNY 83 63 50 SW15G28 29.95F SYLVANIA PTCLDY 82 64 55 W13G24 29.96F CLAXTON MOCLDY 81 64 57 SW6G21 29.97F ...CSRA...CENTRAL AND FAR SOUTHEAST GEORGIA... CITY SKY/WX TMP DP RH WIND PRES REMARKS THOMSON CLOUDY 60 60 98 W7 30.03F AUGUSTA-BUSH LGT RAIN 62 58 86 NW21G39 29.97R AUGUSTA-DANIEL LGT RAIN 63 59 87 NW17G24 29.98R SWAINSBORO CLOUDY 81 52 36 SW14G20 29.95F VIDALIA MOSUNNY 81 64 57 SW21G29 29.96F EASTMAN RAIN 75 68 78 W10G17 30.00S HAZLEHURST FAIR 82 65 55 SW14G24 29.96F ALMA CLOUDY 79 62 56 SW18G26 30.00F WAYCROSS PTSUNNY 85 67 54 W18 30.00F JESUP FAIR 82 64 54 W14G23 30.00F BAXLEY PTSUNNY 82 64 54 SW15G22 29.99F BRUNSWICK MOSUNNY 84 59 42 SW22G29 30.02F SAINT SIMONS MOSUNNY 81 62 52 SW15G22 30.01F $$ SCZ027-028-034-036>038-045-046-048>050-GAZ119-141-052000- ...LAKE AND SUPPLEMENTAL COASTAL OBSERVATIONS... STATION/POSITION TIME TEMP WIND PRES WAVE SWELL AIR SEA DIR/SP/G HT/PER HT/PER/DIR (UTC) (F) (DEG/KT/KT) (MB) (FT/S) (FT/S/D) UPR LAKE MARION NOT AVBL WINYAH BAY 1745 74 210/ 18 1014.0 LAKE MURRAY 1800 71 220/ 18/ 22 1011.9F ACE BASIN NERRS 1745 70 170/ 3 1016.0 FORT PULASKI 1800 69 53 200/ 12/ 19 1016.6F SAPELO ISLAND 1800 75 230/ 17 1017.0S $$ ANZ835-935-AMZ111-154-330-350-352-354-370-450-454-472-052000- ...C-MAN AND BUOY OBSERVATIONS... STATION/POSITION TIME TEMP WIND PRES WAVE SWELL AIR SEA DIR/SP/G HT/PER HT/PER/DIR (UTC) (F) (DEG/KT/KT) (MB) (FT/S) (FT/S/D) BUOY 41004 1850 69 68 210/ 23/ 29 1014.3F 6/ 7 2/10 BUOY 41008 1850 61 56 190/ 14/ 16 1016.2F 3/10 2/120/10 FOLLY BEACH CMAN 1800 58 220/ 10/ 12 1016.6F CAPERS NEARSHORE 1800 56 240/ 8/ 10 N/A FRIPP NEARSHORE 1800 57 210/ 17/ 21 1015.8F STATION/POSITION TIME TEMP WIND PRES WAVE SWELL AIR SEA DIR/SP/G HT/PER HT/PER/DIR (UTC) (F) (DEG/KT/KT) (MB) (FT/S) (FT/S/D) 5E ST. MARYS GA 1821 55 N/A 3/ 5 2/100/12 FRYING PAN BUOY 1850 68 64 220/ 21/ 25 1014.6F 7/ 7 3/140/10 BUOY 41025 NOT AVBL CAPE LOOKOUT NC 1800 59 230/ 13/ 18 1014.5F BUOY 41002 1850 74 73 220/ 19/ 23 1019.1F 7/ 7 3/120/10 BUOY 41010 1820 74 75 180/ 14/ 16 1020.3F ST AUGUSTINE FL 1800 79 220/ 12/ 15 1019.1S $$

USA.gov is the U.S. government's official web portal to all federal, state and local government web resources and services.